Location: ?????????
(41.2286°N, 23.0068°E)
Time: 09:07:55
(UTC+00:00)

In-Cosmos 22 Rocket - Pass Details

Date: 08 November 2025
Orbit: 789 x 886 km, 81.2° (Epoch: 04 December)

Event Time Altitude Azimuth Distance (km) Brightness Sun altitude
Rises 04:29:51 0° 189° (S) 3,453 7.5 -7.6°
Reaches altitude 10° 04:32:16 10° 190° (S) 2,527 6.8 -7.1°
Maximum altitude 04:38:03 86° 278° (W) 894 4.3 -6.1°
Drops below altitude 10° 04:43:54 10° 9° (N) 2,556 6.6 -5.0°
Sets 04:46:22 0° 10° (N) 3,495 7.3 -4.6°
